[[{"header":{"parameterUnit":"m.s-1","parameterCategory":2,"la1":30.2991,"la2":30.254,"lo1":-89.0895,"lo2":-89.0444,"dy":0.0017,"dx":0.0017,"nx":28,"ny":28,"refTime":"2025-05-27T09:00:00:Z","depth":"0","parameterNumber":2,"parameterNumberName":"U-component_of_CURRENTS"},"data":[0,0,0,0,0,0,0,0,0,0,0,0,0,0,0,0,0,0,0,0,0,0,0,0,0,0,0,0,0,0,0,0,0,0,0,0,0,0,0,0,0,0,0,0,0,0,0,0,0,0,0,0,0,0,0,0,0,0,0.3392,0.3393,0,0.3431,0.3431,0.3431,0.3394,0.3393,0.3392,0.3391,0.3352,0.3352,0.3352,0,0,0,0,0,0,0,0,0,0,0,0,0,0.3307,0.3308,0.3392,0.3393,0.3394,0.3431,0.3431,0.3431,0.3394,0.3393,0.3392,0.3391,0.3352,0.3352,0.3352,0,0,0,0,0,0,0,0,0,0,0,0,0,0.334,0.3308,0.3391,0.3384,0.3384,0.3431,0.3431,0.3431,0.3395,0.3393,0.3392,0.339,0.3352,0.3352,0.3352,0.3381,0,0,0.3351,0.3351,0,0,0,0,0,0,0,0,0.3338,0.3342,0.3384,0.3384,0.3384,0.3411,0.3387,0.3412,0.3395,0.3385,0.3391,0.339,0.3369,0.3367,0.3372,0.3379,0.3377,0.3351,0.3351,0.3351,0.3351,0,0,0,0,0,0,0,0.3335,0.334,0.3402,0.3385,0.3386,0.3386,0.3388,0.3392,0.3379,0.3386,0.3384,0.3398,0.3367,0.3372,0.337,0.3377,0.3351,0.3351,0.3351,0.3351,0.3486,0.3489,0,0,0,0,0,0,0.3342,0.3338,0.3401,0.3404,0.3363,0.3389,0.3391,0.34,0.3381,0.3379,0.3399,0.3396,0.3373,0.3371,0.3369,0.3471,0.3351,0.3351,0.3351,0.3482,0.3486,0.349,0,0,0,0,0,0,0.334,0.3347,0.3399,0.3376,0.3383,0.3393,0.3402,0.3401,0.341,0.3393,0.3388,0.3409,0.3372,0.3369,0.3398,0.3466,0.3351,0.335,0.3478,0.3483,0.3488,0.363,0,0,0,0,0,0,0.3337,0.3346,0.3359,0.3377,0.3385,0.3438,0.3404,0.3403,0.3423,0.3419,0.3401,0.3395,0.337,0.3399,0.3398,0.3463,0.335,0.3473,0.348,0.3487,0.3621,0.364,0.3656,0,0,0,0,0,0.3334,0.336,0.3359,0.3367,0.3401,0.344,0.3444,0.3441,0.3425,0.3441,0.344,0.3396,0.3443,0.3402,0.34,0.3466,0.347,0.3478,0.3486,0.3613,0.3636,0.3655,0,0,0,0,0,0,0.3334,0.336,0.3359,0.3392,0.3419,0.3435,0.3454,0.3454,0.3466,0.346,0.3432,0.3429,0.3493,0.346,0.3415,0.353,0.3454,0.3462,0.3551,0.3572,0.359,0.364,0.335,0,0,0,0,0,0.3342,0.3365,0.3391,0.3421,0.3432,0.3445,0.3462,0.3464,0.3478,0.3481,0.3479,0.3487,0.3529,0.353,0.3553,0.3597,0.3604,0.3644,0.3662,0.3677,0.3721,0.3819,0.385,0.3518,0.3518,0.3517,0,0,0.3348,0.3371,0.3382,0.3423,0.3436,0.3481,0.3449,0.3483,0.3534,0.3476,0.3539,0.3552,0.3559,0.3629,0.3653,0.3602,0.3766,0.3687,0.37,0.3736,0.3831,0.3864,0.3893,0.3523,0.3522,0.3521,0,0,0.3379,0.3394,0.342,0.3454,0.3493,0.3512,0.3527,0.3557,0.3579,0.3641,0.3638,0.3703,0.3718,0.3769,0.3789,0.3919,0.3869,0.3908,0.4022,0.4117,0.4145,0.417,0.4176,0.4201,0.39,0.3901,0.3901,0,0.3382,0.3434,0.3437,0.3483,0.3537,0.3531,0.3596,0.3622,0.3666,0.3717,0.3676,0.3807,0.3807,0.3938,0.399,0.3965,0.3971,0.3933,0.4141,0.4166,0.419,0.419,0.4216,0.3909,0.3908,0.3907,0.3906,0,0.3438,0.3488,0.3513,0.3575,0.363,0.3684,0.3735,0.3777,0.3804,0.3851,0.3981,0.4003,0.408,0.4099,0.4084,0.426,0.4192,0.4163,0.4085,0.4232,0.4222,0.4246,0.392,0.3917,0.3915,0.3913,0,0,0.342,0.3529,0.354,0.3599,0.3694,0.3741,0.3839,0.3946,0.4017,0.4077,0.4201,0.4308,0.4322,0.4351,0.4347,0.4435,0.4592,0.4374,0.4375,0.4377,0.4744,0.4464,0.4461,0.4593,0.4599,0.4604,0.4653,0,0.3465,0.3577,0.3633,0.3758,0.3828,0.3889,0.3986,0.4084,0.4153,0.4257,0.4338,0.4438,0.4412,0.4447,0.455,0.4595,0.467,0.4578,0.4607,0.4607,0.4339,0.4487,0.422,0.4223,0.4676,0.468,0.4683,0,0.3502,0.3586,0.372,0.3873,0.3908,0.398,0.4144,0.423,0.4375,0.4434,0.4557,0.4591,0.4753,0.4686,0.4864,0.48,0.4804,0.482,0.4821,0.4538,0.4374,0.416,0.4248,0.4171,0.4719,0.4716,0.4714,0,0.3499,0.3646,0.3765,0.382,0.3982,0.4055,0.4137,0.4287,0.4398,0.4541,0.4621,0.4783,0.4853,0.4946,0.496,0.4933,0.511,0.5059,0.4809,0.4785,0.4555,0.4499,0.4575,0.5203,0.5203,0.5203,0.5202,0,0.3537,0.3622,0.3762,0.3826,0.3975,0.4073,0.4232,0.4318,0.4488,0.4607,0.4703,0.4791,0.4932,0.5014,0.5029,0.4974,0.5159,0.487,0.4811,0.4584,0.4533,0.4447,0.4444,0.5204,0.5204,0.5204,0.5203,0,0.3516,0.3605,0.3746,0.3919,0.3977,0.4078,0.4286,0.439,0.452,0.4671,0.4721,0.4868,0.4907,0.4981,0.5094,0.501,0.4848,0.4936,0.4604,0.4503,0.4121,0.4133,0.3973,0.3881,0.4672,0.4666,0.4661,0,0.3525,0.3592,0.3795,0.3891,0.397,0.4127,0.4236,0.44,0.4503,0.4673,0.4733,0.4815,0.4791,0.4818,0.4704,0.4636,0.4613,0.4345,0.4253,0.4094,0.4071,0.3945,0.3877,0.4002,0.3992,0.3983,0.3977,0,0.3567,0.3628,0.3756,0.393,0.4057,0.4176,0.4314,0.4379,0.4521,0.459,0.46,0.4582,0.4527,0.4294,0.4191,0.4132,0.4101,0.416,0.4148,0.3684,0.3413,0.3293,0.393,0.3902,0.391,0.3915,0.3919,0.3922,0.3619,0.3692,0.3847,0.3975,0.4103,0.4129,0.4112,0.421,0.4251,0.4194,0.4334,0.4147,0.4022,0.3779,0.3703,0.3395,0.3503,0.3273,0.334,0.3255,0.3053,0.3456,0.3253,0.3256,0.3259,0.3262,0.3265,0,0.3671,0.3731,0.3879,0.3979,0.3995,0.4074,0.4095,0.398,0.3838,0.3846,0.3759,0.3494,0.3242,0.3135,0.2828,0.2649,0.2578,0.2606,0.2479,0.2489,0.2985,0.2841,0.2353,0.2353,0.2354,0.2354,0.2354,0.2354,0.3719,0.3808,0.3822,0.3813,0.3831,0.3701,0.3605,0.3449,0.3371,0.3063,0.2852,0.2805,0.2782,0.2582,0.2319,0.2246,0.2169,0.1936,0.2099,0.2556,0.2627,0.2695,0.2563,0.2024,0.2024,0.1437,0.1433,0.143]},{"header":{"parameterUnit":"m.s-1","parameterCategory":2,"la1":30.2991,"la2":30.254,"lo1":-89.0895,"lo2":-89.0444,"dy":0.0017,"dx":0.0017,"nx":28,"ny":28,"refTime":"2025-05-27T09:00:00:Z","depth":"0","parameterNumber":3,"parameterNumberName":"V-component_of_CURRENTS"},"data":[0,0,0,0,0,0,0,0,0,0,0,0,0,0,0,0,0,0,0,0,0,0,0,0,0,0,0,0,0,0,0,0,0,0,0,0,0,0,0,0,0,0,0,0,0,0,0,0,0,0,0,0,0,0,0,0,0,0,0.0283,0.0283,0,0.0303,0.0303,0.0303,0.0297,0.0296,0.0296,0.0296,0.0306,0.0306,0.0307,0,0,0,0,0,0,0,0,0,0,0,0,0,0.0228,0.0229,0.0283,0.0283,0.0284,0.0303,0.0303,0.0303,0.0297,0.0296,0.0296,0.0296,0.0306,0.0306,0.0307,0,0,0,0,0,0,0,0,0,0,0,0,0,0.0249,0.0229,0.0283,0.0284,0.0284,0.0302,0.0303,0.0303,0.0297,0.0296,0.0296,0.0295,0.0305,0.0306,0.0307,0.0322,0,0,0.031,0.031,0,0,0,0,0,0,0,0,0.0248,0.0251,0.0283,0.0284,0.0284,0.0298,0.0287,0.0309,0.0297,0.0291,0.0296,0.0295,0.0303,0.0304,0.0308,0.0322,0.0323,0.031,0.031,0.0311,0.0311,0,0,0,0,0,0,0,0.0246,0.025,0.029,0.0284,0.0284,0.0279,0.0281,0.0291,0.0298,0.0291,0.0291,0.0295,0.0303,0.0307,0.0308,0.0323,0.031,0.0311,0.0311,0.0311,0.0362,0.0363,0,0,0,0,0,0,0.0247,0.0249,0.0289,0.029,0.0265,0.028,0.0283,0.0293,0.0299,0.0299,0.0296,0.0295,0.0306,0.0307,0.0308,0.0348,0.0311,0.0312,0.0312,0.0362,0.0363,0.0364,0,0,0,0,0,0,0.0246,0.0251,0.0288,0.027,0.0275,0.0282,0.0293,0.0294,0.0299,0.0302,0.0302,0.0301,0.0305,0.0307,0.032,0.0347,0.0312,0.0313,0.0361,0.0362,0.0363,0.0413,0,0,0,0,0,0,0.0245,0.0251,0.0258,0.0271,0.0276,0.0308,0.0294,0.0294,0.0303,0.0302,0.0307,0.0307,0.0305,0.0319,0.0321,0.0348,0.0313,0.036,0.0361,0.0363,0.041,0.0416,0.042,0,0,0,0,0,0.0243,0.0264,0.0258,0.0263,0.0286,0.0308,0.0311,0.0313,0.0304,0.0314,0.0312,0.0307,0.033,0.032,0.0322,0.035,0.0359,0.0361,0.0363,0.0408,0.0415,0.042,0,0,0,0,0,0,0.0247,0.0266,0.0259,0.0285,0.0296,0.0308,0.0319,0.0317,0.0324,0.0322,0.0316,0.0317,0.034,0.0336,0.0324,0.0368,0.0345,0.0347,0.0378,0.0385,0.039,0.0437,0.0314,0,0,0,0,0,0.0249,0.0268,0.028,0.03,0.0306,0.031,0.0318,0.0321,0.0329,0.0331,0.0335,0.0339,0.035,0.0358,0.0366,0.039,0.0404,0.0409,0.0414,0.0419,0.0458,0.0524,0.0539,0.037,0.037,0.037,0,0,0.0255,0.0268,0.0278,0.0301,0.0307,0.0333,0.0314,0.0334,0.0356,0.0332,0.0361,0.0357,0.0359,0.0386,0.0397,0.0387,0.0459,0.0421,0.0425,0.0463,0.0527,0.0544,0.0559,0.0371,0.0371,0.0371,0,0,0.0284,0.0288,0.0314,0.0326,0.0343,0.0351,0.0358,0.0373,0.0379,0.0403,0.0392,0.0413,0.042,0.0441,0.0448,0.0489,0.0483,0.0476,0.0546,0.0608,0.0624,0.0638,0.0616,0.0628,0.0481,0.0482,0.0482,0,0.0287,0.0327,0.0324,0.0353,0.0371,0.0362,0.0396,0.0405,0.0423,0.0451,0.0419,0.0476,0.0459,0.0525,0.0526,0.0506,0.0511,0.052,0.0618,0.0633,0.0646,0.0621,0.0634,0.0484,0.0484,0.0484,0.0483,0,0.0339,0.0368,0.0386,0.0419,0.0434,0.0465,0.0475,0.0497,0.0498,0.0521,0.058,0.057,0.0618,0.0598,0.0569,0.0657,0.0614,0.0614,0.0607,0.0667,0.0634,0.0647,0.0488,0.0487,0.0486,0.0486,0,0,0.0358,0.0413,0.0419,0.0451,0.0475,0.0501,0.0537,0.0591,0.0659,0.0656,0.0752,0.0742,0.0756,0.0766,0.0742,0.0779,0.0829,0.0736,0.0738,0.0722,0.0914,0.0822,0.0826,0.0852,0.0856,0.0859,0.083,0,0.0402,0.0478,0.0487,0.0555,0.0597,0.0601,0.0649,0.0692,0.0737,0.0825,0.083,0.0903,0.0814,0.0851,0.0875,0.0869,0.0875,0.0834,0.0854,0.0853,0.0775,0.0844,0.0833,0.0805,0.0842,0.0844,0.0845,0,0.045,0.0501,0.0578,0.0651,0.0669,0.0702,0.0804,0.0847,0.095,0.0997,0.1071,0.1087,0.114,0.106,0.1082,0.1061,0.0993,0.0961,0.096,0.0884,0.0789,0.0764,0.0825,0.0768,0.0864,0.0863,0.0861,0,0.0487,0.0563,0.0632,0.0654,0.0732,0.0768,0.0807,0.0905,0.1002,0.1124,0.123,0.1276,0.1335,0.1293,0.1194,0.1159,0.1204,0.115,0.099,0.0978,0.0982,0.0966,0.1012,0.1167,0.1167,0.1168,0.1168,0,0.054,0.0595,0.0656,0.0698,0.08,0.0817,0.0953,0.1012,0.116,0.1324,0.1328,0.1466,0.1407,0.1412,0.1282,0.1177,0.1271,0.103,0.0998,0.0987,0.0972,0.093,0.0884,0.1166,0.1167,0.1167,0.1167,0,0.0577,0.0614,0.0707,0.0792,0.0822,0.0893,0.104,0.1174,0.1274,0.1496,0.1548,0.1648,0.1643,0.1529,0.1466,0.1304,0.1147,0.1121,0.1062,0.1023,0.0799,0.0754,0.075,0.0726,0.0957,0.0955,0.0954,0,0.0609,0.066,0.0775,0.0851,0.0892,0.1001,0.1113,0.1227,0.1394,0.1613,0.175,0.1797,0.1857,0.1687,0.1429,0.1189,0.1106,0.0994,0.0931,0.0816,0.0745,0.0707,0.0687,0.0921,0.0919,0.0917,0.0916,0,0.0681,0.0718,0.0804,0.0956,0.107,0.1212,0.1369,0.1513,0.1686,0.1858,0.2058,0.2102,0.1928,0.1709,0.1356,0.1175,0.0955,0.0952,0.0907,0.0791,0.0692,0.0643,0.0843,0.0903,0.0905,0.0906,0.0906,0.0907,0.0747,0.082,0.0939,0.1079,0.1225,0.1411,0.1536,0.1731,0.1959,0.2205,0.2241,0.2295,0.1969,0.1492,0.126,0.0828,0.0838,0.0697,0.0665,0.0647,0.061,0.0728,0.0709,0.0709,0.0709,0.071,0.071,0,0.0838,0.0923,0.106,0.1238,0.1407,0.1459,0.1717,0.1856,0.2102,0.2286,0.2415,0.224,0.1857,0.1446,0.0861,0.0606,0.0536,0.0491,0.0486,0.0488,0.067,0.0655,0.0539,0.0539,0.0539,0.054,0.054,0.054,0.0898,0.103,0.1089,0.1353,0.1484,0.1697,0.1833,0.2037,0.2195,0.2359,0.2355,0.234,0.2035,0.1119,0.0574,0.0457,0.0362,0.0279,0.0254,0.0412,0.043,0.0448,0.0428,0.0267,0.0267,0.0111,0.011,0.0108]}],[{"header":{"parameterUnit":"m.s-1","parameterCategory":2,"la1":30.2991,"la2":30.254,"lo1":-89.0895,"lo2":-89.0444,"dy":0.0017,"dx":0.0017,"nx":28,"ny":28,"refTime":"2025-05-27T09:00:00:Z","depth":"2","parameterNumber":2,"parameterNumberName":"U-component_of_CURRENTS"},"data":[0,0,0,0,0,0,0,0,0,0,0,0,0,0,0,0,0,0,0,0,0,0,0,0,0,0,0,0,0,0,0,0,0,0,0,0,0,0,0,0,0,0,0,0,0,0,0,0,0,0,0,0,0,0,0,0,0,0,0.2745,0.2745,0,0.2729,0.2728,0.2728,0.2711,0.2711,0.2711,0.2711,0.2729,0.2729,0.273,0,0,0,0,0,0,0,0,0,0,0,0,0,0.2727,0.2728,0.2745,0.2745,0.2745,0.2729,0.2728,0.2728,0.2711,0.2711,0.2711,0.2711,0.2728,0.2729,0.273,0,0,0,0,0,0,0,0,0,0,0,0,0,0.2724,0.2728,0.2745,0.2736,0.2735,0.2729,0.2728,0.2728,0.2712,0.2711,0.2711,0.2711,0.2728,0.2729,0.273,0.2738,0,0,0.2732,0.2733,0,0,0,0,0,0,0,0,0.2724,0.2725,0.2737,0.2737,0.2736,0.2723,0.2728,0.2734,0.2712,0.2719,0.2711,0.2711,0.2731,0.2732,0.2726,0.2739,0.274,0.2732,0.2733,0.2733,0.2734,0,0,0,0,0,0,0,0.2725,0.2725,0.2737,0.2737,0.2736,0.272,0.272,0.2729,0.2726,0.2718,0.2717,0.2718,0.2731,0.2726,0.2727,0.274,0.2732,0.2733,0.2734,0.2734,0.285,0.2852,0,0,0,0,0,0,0.2732,0.2726,0.2738,0.2737,0.2731,0.2721,0.2721,0.2726,0.2725,0.2725,0.2718,0.2717,0.2724,0.2726,0.2727,0.2819,0.2733,0.2734,0.2735,0.2847,0.285,0.2853,0,0,0,0,0,0,0.2731,0.2733,0.2739,0.2731,0.2731,0.2722,0.2728,0.2726,0.2741,0.2724,0.2724,0.2737,0.2724,0.2726,0.2748,0.2816,0.2734,0.2735,0.2844,0.2848,0.2852,0.2949,0,0,0,0,0,0,0.2731,0.2733,0.2737,0.2732,0.2732,0.2756,0.2728,0.2726,0.2741,0.274,0.2741,0.2741,0.2724,0.2746,0.2748,0.2816,0.2736,0.2841,0.2846,0.2851,0.2942,0.2956,0.2967,0,0,0,0,0,0.273,0.2736,0.2738,0.2739,0.2739,0.2758,0.2757,0.2748,0.2742,0.2759,0.2751,0.2742,0.278,0.2748,0.275,0.282,0.2839,0.2845,0.285,0.2937,0.2953,0.2967,0,0,0,0,0,0,0.2731,0.2735,0.2736,0.2744,0.2761,0.2756,0.2764,0.2765,0.2771,0.2771,0.2756,0.2756,0.2822,0.2797,0.2762,0.2869,0.2816,0.2823,0.2882,0.2897,0.2909,0.2928,0.2737,0,0,0,0,0,0.2734,0.275,0.2752,0.277,0.2774,0.2776,0.2782,0.2782,0.2786,0.2789,0.2794,0.2805,0.2845,0.2847,0.2877,0.2906,0.2921,0.296,0.2972,0.2982,0.3001,0.3124,0.315,0.2872,0.2872,0.2872,0,0,0.2743,0.275,0.2758,0.2773,0.2781,0.2799,0.278,0.2802,0.2811,0.2792,0.2816,0.2861,0.287,0.2925,0.2951,0.2906,0.3055,0.2989,0.2998,0.3012,0.3133,0.3161,0.3185,0.2876,0.2875,0.2875,0,0,0.2767,0.2775,0.2788,0.2808,0.2827,0.283,0.2845,0.2857,0.2852,0.2896,0.2896,0.2975,0.3005,0.3032,0.3048,0.3143,0.3138,0.3157,0.3209,0.3329,0.3353,0.3375,0.3366,0.3386,0.3137,0.3137,0.3138,0,0.2771,0.2791,0.2799,0.2822,0.2827,0.2851,0.286,0.2872,0.2893,0.2932,0.2923,0.3063,0.3069,0.3154,0.3184,0.3177,0.3198,0.3149,0.3347,0.337,0.339,0.3376,0.3397,0.3143,0.3142,0.3142,0.3141,0,0.2794,0.2823,0.284,0.2872,0.2881,0.2907,0.2912,0.2959,0.2987,0.3033,0.3151,0.3171,0.3263,0.3285,0.3259,0.3406,0.3355,0.3371,0.3311,0.3425,0.34,0.3421,0.3151,0.3149,0.3147,0.3146,0,0,0.2777,0.2836,0.2848,0.2879,0.2902,0.2926,0.2961,0.3024,0.3117,0.3171,0.329,0.3364,0.3426,0.3446,0.3438,0.3519,0.3658,0.35,0.3504,0.3489,0.3844,0.3608,0.3606,0.3724,0.3729,0.3734,0.3744,0,0.2792,0.2833,0.285,0.2916,0.2932,0.2976,0.3014,0.3091,0.3185,0.3325,0.339,0.353,0.346,0.3545,0.3606,0.3679,0.3728,0.3648,0.3737,0.3737,0.3517,0.363,0.335,0.3322,0.3764,0.3767,0.377,0,0.2799,0.2828,0.2856,0.2946,0.2957,0.3021,0.3143,0.3175,0.3365,0.346,0.3609,0.3693,0.3802,0.3762,0.3877,0.3833,0.3845,0.3874,0.3876,0.3645,0.3543,0.3294,0.3342,0.3803,0.3801,0.3798,0.3796,0,0.2778,0.2846,0.2866,0.2891,0.298,0.3048,0.3108,0.3262,0.3328,0.3587,0.3731,0.3864,0.3947,0.4026,0.4015,0.4001,0.4135,0.4126,0.3901,0.3878,0.365,0.3598,0.4246,0.4246,0.4246,0.4246,0.4246,0,0.2775,0.2823,0.2891,0.2935,0.3018,0.3056,0.3185,0.3325,0.3496,0.3613,0.3793,0.3891,0.4042,0.4104,0.4094,0.401,0.4185,0.3927,0.39,0.3662,0.3614,0.4051,0.4028,0.4246,0.4246,0.4246,0.4246,0,0.2769,0.2796,0.2868,0.2978,0.3025,0.3089,0.3227,0.3325,0.3505,0.367,0.3765,0.3966,0.4029,0.4084,0.4198,0.4072,0.4069,0.3995,0.3624,0.3553,0.3704,0.3687,0.3777,0.377,0.3763,0.3758,0.3754,0,0.2773,0.2788,0.2914,0.2943,0.3018,0.3101,0.316,0.3336,0.3454,0.3653,0.375,0.3887,0.3892,0.3903,0.3827,0.3757,0.3898,0.3423,0.3357,0.3708,0.3674,0.3666,0.3657,0.3069,0.3059,0.3052,0.3045,0,0.2777,0.2819,0.2887,0.2965,0.3046,0.3043,0.3181,0.3279,0.3433,0.3548,0.3634,0.3643,0.3641,0.3429,0.3343,0.327,0.3417,0.3251,0.3812,0.3205,0.3036,0.3002,0.3019,0.2975,0.2982,0.2987,0.2991,0.2993,0.2793,0.2819,0.2903,0.2968,0.3015,0.2977,0.2965,0.3066,0.3134,0.3215,0.3348,0.3227,0.322,0.2922,0.2783,0.2696,0.2936,0.2806,0.2835,0.2871,0.2762,0.2589,0.2417,0.2421,0.2424,0.2427,0.2429,0,0.2776,0.2803,0.2868,0.2902,0.286,0.2905,0.2947,0.2854,0.2827,0.2896,0.2868,0.2555,0.2366,0.2378,0.2122,0.2051,0.2091,0.1965,0.2025,0.2095,0.2158,0.2017,0.1472,0.1469,0.1466,0.1464,0,0,0.276,0.2792,0.2808,0.2722,0.2706,0.2584,0.2532,0.2424,0.2432,0.2268,0.2183,0.2288,0.2326,0.1905,0.1809,0.1605,0.1855,0.1532,0.2305,0.2451,0.2511,0.2642,0.2502,0,0,0,0,0]},{"header":{"parameterUnit":"m.s-1","parameterCategory":2,"la1":30.2991,"la2":30.254,"lo1":-89.0895,"lo2":-89.0444,"dy":0.0017,"dx":0.0017,"nx":28,"ny":28,"refTime":"2025-05-27T09:00:00:Z","depth":"2","parameterNumber":3,"parameterNumberName":"V-component_of_CURRENTS"},"data":[0,0,0,0,0,0,0,0,0,0,0,0,0,0,0,0,0,0,0,0,0,0,0,0,0,0,0,0,0,0,0,0,0,0,0,0,0,0,0,0,0,0,0,0,0,0,0,0,0,0,0,0,0,0,0,0,0,0,0.0126,0.0126,0,0.0134,0.0134,0.0134,0.0131,0.0131,0.0131,0.0131,0.0144,0.0144,0.0144,0,0,0,0,0,0,0,0,0,0,0,0,0,0.0087,0.0088,0.0126,0.0126,0.0127,0.0134,0.0134,0.0134,0.0131,0.0131,0.0131,0.0131,0.0143,0.0144,0.0144,0,0,0,0,0,0,0,0,0,0,0,0,0,0.01,0.0089,0.0126,0.0127,0.0127,0.0134,0.0134,0.0134,0.0131,0.0131,0.0131,0.0131,0.0143,0.0144,0.0144,0.0152,0,0,0.0147,0.0147,0,0,0,0,0,0,0,0,0.0099,0.0102,0.0126,0.0127,0.0127,0.0132,0.0125,0.0141,0.0132,0.0129,0.0131,0.0131,0.0141,0.0142,0.0142,0.0153,0.0153,0.0147,0.0147,0.0147,0.0147,0,0,0,0,0,0,0,0.0099,0.0101,0.0129,0.0127,0.0127,0.0119,0.0121,0.0128,0.0135,0.0129,0.0129,0.0131,0.0141,0.0142,0.0143,0.0153,0.0147,0.0147,0.0148,0.0148,0.0178,0.0178,0,0,0,0,0,0,0.01,0.0101,0.0129,0.0129,0.0113,0.012,0.0122,0.013,0.0135,0.0136,0.0131,0.0131,0.0141,0.0142,0.0143,0.0171,0.0147,0.0148,0.0148,0.0177,0.0178,0.0178,0,0,0,0,0,0,0.01,0.0103,0.0128,0.0115,0.0118,0.0121,0.013,0.013,0.0134,0.0137,0.0137,0.0135,0.0141,0.0142,0.0153,0.0171,0.0148,0.0149,0.0177,0.0178,0.0178,0.0216,0,0,0,0,0,0,0.0099,0.0103,0.0108,0.0115,0.0119,0.0141,0.013,0.0131,0.0136,0.0135,0.014,0.0141,0.0141,0.0152,0.0154,0.0172,0.0149,0.0176,0.0177,0.0178,0.0214,0.0218,0.0221,0,0,0,0,0,0.0097,0.0114,0.0108,0.0112,0.0126,0.0142,0.0143,0.0143,0.0136,0.0144,0.0143,0.0141,0.0158,0.0153,0.0155,0.0173,0.0176,0.0177,0.0178,0.0213,0.0217,0.0221,0,0,0,0,0,0,0.0102,0.0115,0.0109,0.0129,0.0135,0.0141,0.015,0.0146,0.0151,0.0151,0.0147,0.0148,0.0163,0.0161,0.0155,0.0183,0.0166,0.0168,0.0192,0.0196,0.02,0.0233,0.015,0,0,0,0,0,0.0104,0.0118,0.0125,0.014,0.0144,0.0144,0.0149,0.0151,0.0156,0.0158,0.0161,0.0163,0.0168,0.0176,0.0179,0.0197,0.0199,0.0209,0.0212,0.0215,0.0243,0.0277,0.0287,0.0181,0.0181,0.0181,0,0,0.0108,0.0118,0.0125,0.0141,0.0145,0.0164,0.0147,0.0162,0.0178,0.016,0.0182,0.0175,0.0174,0.0192,0.0199,0.0194,0.0234,0.0216,0.0219,0.0245,0.028,0.029,0.03,0.0182,0.0182,0.0182,0,0,0.0133,0.0133,0.0156,0.0165,0.0177,0.018,0.0185,0.0194,0.0197,0.0212,0.0203,0.0214,0.0216,0.023,0.0233,0.0259,0.0248,0.0248,0.03,0.0332,0.0342,0.0351,0.0319,0.0324,0.0254,0.0254,0.0254,0,0.0136,0.0168,0.0164,0.0189,0.0202,0.0189,0.0217,0.0221,0.0233,0.0252,0.0225,0.0257,0.0243,0.0288,0.0286,0.0271,0.0264,0.0284,0.0339,0.0348,0.0357,0.0322,0.0328,0.0256,0.0256,0.0255,0.0255,0,0.018,0.0204,0.022,0.0247,0.0257,0.0281,0.0284,0.0301,0.0296,0.0306,0.0342,0.0327,0.0358,0.0339,0.0316,0.0371,0.0334,0.0336,0.0333,0.037,0.033,0.0335,0.0259,0.0258,0.0257,0.0257,0,0,0.0197,0.0243,0.0249,0.0276,0.0291,0.0312,0.0339,0.0375,0.0433,0.0412,0.0483,0.0458,0.0461,0.0466,0.0444,0.0459,0.0474,0.0421,0.0422,0.0396,0.0502,0.044,0.0439,0.0489,0.0491,0.0493,0.0432,0,0.0235,0.0302,0.0307,0.0364,0.0399,0.04,0.044,0.0468,0.0495,0.0562,0.0542,0.0599,0.0506,0.0542,0.0533,0.0514,0.0499,0.0488,0.0466,0.0464,0.0413,0.0449,0.0465,0.0412,0.0437,0.0438,0.0439,0,0.0279,0.0322,0.0386,0.045,0.0466,0.0492,0.0576,0.0614,0.0686,0.0718,0.0755,0.0759,0.0773,0.0702,0.0661,0.0658,0.058,0.0539,0.0537,0.0484,0.0416,0.0389,0.0421,0.0448,0.0447,0.0447,0.0446,0,0.031,0.0378,0.0434,0.0452,0.0518,0.0549,0.0585,0.0662,0.0752,0.0839,0.0928,0.092,0.0954,0.0876,0.0748,0.0726,0.0693,0.0658,0.0515,0.0507,0.0522,0.0512,0.0632,0.0632,0.0632,0.0632,0.0633,0,0.0356,0.0403,0.0456,0.0489,0.0582,0.0597,0.0722,0.0771,0.0899,0.1037,0.1017,0.1115,0.1008,0.0966,0.0818,0.0676,0.074,0.0539,0.051,0.0526,0.0517,0.0562,0.0555,0.063,0.0631,0.0631,0.0631,0,0.0392,0.042,0.0498,0.057,0.06,0.0668,0.0815,0.0938,0.1024,0.1211,0.1256,0.1288,0.1224,0.1074,0.0952,0.0784,0.0652,0.0574,0.0559,0.0531,0.0415,0.041,0.0433,0.0431,0.0429,0.0427,0.0426,0,0.0421,0.0461,0.0561,0.0629,0.0663,0.0773,0.0884,0.0995,0.115,0.1313,0.1425,0.1414,0.1402,0.1159,0.0914,0.0658,0.0623,0.0481,0.0449,0.0436,0.0406,0.0404,0.0401,0.0454,0.0453,0.0453,0.0452,0,0.0479,0.0507,0.0579,0.072,0.0827,0.0976,0.1131,0.1269,0.1425,0.1552,0.1675,0.166,0.144,0.119,0.0839,0.0661,0.0527,0.0455,0.0504,0.0497,0.0451,0.0422,0.0421,0.0445,0.0446,0.0446,0.0447,0.0447,0.0529,0.0588,0.0685,0.0827,0.0967,0.1159,0.1285,0.1457,0.1651,0.1813,0.1799,0.1742,0.1486,0.1023,0.074,0.0455,0.0477,0.0352,0.0358,0.0363,0.0372,0.0326,0.0293,0.0293,0.0293,0.0293,0.0293,0,0.0597,0.0669,0.0796,0.0965,0.1135,0.1195,0.1454,0.1569,0.1755,0.1849,0.1885,0.1591,0.1316,0.102,0.0601,0.0336,0.0331,0.0238,0.03,0.0309,0.0316,0.0325,0.0232,0.0231,0.023,0.0229,0,0,0.0636,0.0751,0.0814,0.1075,0.1205,0.1423,0.156,0.1701,0.1807,0.183,0.1787,0.1719,0.1385,0.1056,0.0723,0.0483,0.0449,0.0423,0.0502,0.0625,0.0635,0.0413,0.044,0,0,0,0,0]}],[{"header":{"parameterUnit":"m.s-1","parameterCategory":2,"la1":30.2991,"la2":30.254,"lo1":-89.0895,"lo2":-89.0444,"dy":0.0017,"dx":0.0017,"nx":28,"ny":28,"refTime":"2025-05-27T09:00:00:Z","depth":"4","parameterNumber":2,"parameterNumberName":"U-component_of_CURRENTS"},"data":[0,0,0,0,0,0,0,0,0,0,0,0,0,0,0,0,0,0,0,0,0,0,0,0,0,0,0,0,0,0,0,0,0,0,0,0,0,0,0,0,0,0,0,0,0,0,0,0,0,0,0,0,0,0,0,0,0,0,0.1476,0.1476,0,0.1503,0.1503,0.1504,0.1541,0.1542,0.1543,0.1543,0.1569,0.1569,0.1569,0,0,0,0,0,0,0,0,0,0,0,0,0,0.1488,0.1488,0.1476,0.1476,0.1477,0.1503,0.1503,0.1504,0.1541,0.1542,0.1543,0.1544,0.1569,0.1569,0.1569,0,0,0,0,0,0,0,0,0,0,0,0,0,0.1495,0.1487,0.1476,0.1499,0.1502,0.1503,0.1503,0.1504,0.1541,0.1542,0.1543,0.1544,0.1569,0.1569,0.1569,0.1547,0,0,0.1569,0.1569,0,0,0,0,0,0,0,0,0.1494,0.1494,0.1495,0.1498,0.15,0.1521,0.1517,0.1518,0.1541,0.1525,0.1543,0.1545,0.1552,0.1554,0.1555,0.1548,0.1549,0.1569,0.1569,0.1569,0.1569,0,0,0,0,0,0,0,0.1494,0.1493,0.1486,0.1496,0.1499,0.152,0.1521,0.1518,0.1531,0.1526,0.1529,0.1534,0.1554,0.1555,0.1556,0.155,0.1569,0.1569,0.1569,0.1569,0.165,0.1652,0,0,0,0,0,0,0.1489,0.1493,0.1485,0.1486,0.1501,0.1518,0.152,0.1512,0.1532,0.1536,0.1533,0.1535,0.1554,0.1556,0.1557,0.1598,0.1569,0.1569,0.1569,0.1647,0.165,0.1652,0,0,0,0,0,0,0.1489,0.1488,0.1484,0.1492,0.1493,0.1517,0.1508,0.1512,0.1548,0.1537,0.1541,0.1568,0.1555,0.1557,0.1593,0.1596,0.1569,0.1569,0.1645,0.1648,0.1651,0.1637,0,0,0,0,0,0,0.1489,0.1487,0.1498,0.1491,0.1492,0.1501,0.1507,0.1512,0.1548,0.1552,0.1568,0.1569,0.1556,0.1593,0.1593,0.1596,0.1569,0.1642,0.1646,0.165,0.1634,0.1639,0.1643,0,0,0,0,0,0.1489,0.1489,0.1498,0.1498,0.15,0.1502,0.1505,0.1525,0.1549,0.1563,0.1588,0.1571,0.1619,0.1594,0.1594,0.1597,0.164,0.1645,0.165,0.1633,0.1638,0.1643,0,0,0,0,0,0,0.1505,0.1492,0.1502,0.1501,0.1512,0.1509,0.1532,0.1545,0.1576,0.1595,0.1589,0.1592,0.1626,0.1628,0.1602,0.1641,0.163,0.1635,0.1617,0.1622,0.1626,0.1668,0.1569,0,0,0,0,0,0.1511,0.1507,0.1505,0.151,0.1521,0.1536,0.1549,0.1561,0.1578,0.1595,0.1602,0.1624,0.1639,0.1647,0.1659,0.1672,0.1715,0.1683,0.1687,0.169,0.173,0.1813,0.1828,0.1668,0.1668,0.1668,0,0,0.1516,0.1514,0.1511,0.1515,0.1531,0.1535,0.1548,0.1574,0.1577,0.159,0.1615,0.164,0.1652,0.1669,0.1684,0.1672,0.1752,0.1696,0.1698,0.1737,0.182,0.1835,0.1849,0.1672,0.1671,0.167,0,0,0.1512,0.153,0.1523,0.1535,0.156,0.1563,0.1579,0.1593,0.1608,0.1635,0.1647,0.1695,0.1703,0.1714,0.172,0.1765,0.1776,0.1762,0.1804,0.1882,0.1896,0.1908,0.1946,0.1963,0.1757,0.1757,0.1757,0,0.1528,0.1511,0.1526,0.153,0.1542,0.1578,0.158,0.1592,0.1615,0.1642,0.1652,0.1733,0.1729,0.1768,0.1781,0.1771,0.1815,0.1767,0.1886,0.19,0.1913,0.1949,0.1968,0.1757,0.1757,0.1757,0.1757,0,0.1506,0.1513,0.152,0.1526,0.1542,0.1557,0.1572,0.16,0.1635,0.166,0.1734,0.176,0.1825,0.1811,0.1805,0.1889,0.1886,0.188,0.1864,0.1928,0.1962,0.1981,0.1757,0.1757,0.1757,0.1757,0,0,0.149,0.1498,0.1507,0.15,0.1545,0.1539,0.1574,0.1606,0.1658,0.1703,0.1778,0.1811,0.188,0.1898,0.1904,0.1961,0.2057,0.1965,0.1969,0.1989,0.222,0.2009,0.2009,0.2075,0.2079,0.2082,0.2192,0,0.1476,0.1456,0.1479,0.1474,0.1463,0.152,0.155,0.1596,0.1666,0.175,0.1817,0.1899,0.1892,0.1947,0.2008,0.2064,0.2116,0.2028,0.2172,0.2176,0.1969,0.2027,0.2096,0.2206,0.221,0.2214,0.2216,0,0.1446,0.1432,0.1418,0.1433,0.1444,0.1466,0.1546,0.1578,0.1714,0.1793,0.192,0.199,0.21,0.2086,0.2238,0.2189,0.2222,0.2248,0.2252,0.2086,0.2002,0.2143,0.2251,0.2248,0.2246,0.2243,0.2241,0,0.1386,0.1389,0.1368,0.1374,0.1408,0.144,0.1484,0.1607,0.1676,0.1851,0.1965,0.2097,0.2199,0.2285,0.2337,0.2318,0.2485,0.2457,0.2293,0.2278,0.244,0.2426,0.2572,0.2572,0.2572,0.2571,0.2571,0,0.1339,0.1331,0.1343,0.1332,0.1343,0.1399,0.1476,0.1564,0.1741,0.1853,0.2002,0.2119,0.2266,0.236,0.2392,0.2393,0.2535,0.2326,0.2305,0.2425,0.2409,0.2451,0.2435,0.2575,0.2574,0.2574,0.2573,0,0.128,0.1291,0.1261,0.1291,0.1312,0.1324,0.146,0.1542,0.1725,0.1891,0.1962,0.218,0.2307,0.2393,0.2522,0.2442,0.2466,0.242,0.2533,0.2512,0.2197,0.2181,0.2279,0.2273,0.2268,0.2263,0.226,0,0.124,0.1215,0.1219,0.1217,0.1242,0.1285,0.1354,0.1524,0.1625,0.1901,0.1979,0.217,0.2283,0.2314,0.2395,0.2424,0.2383,0.2358,0.2293,0.2205,0.2176,0.2167,0.2157,0.2251,0.225,0.2248,0.2247,0,0.1162,0.1178,0.1152,0.115,0.1193,0.1225,0.1331,0.1398,0.1613,0.1797,0.1962,0.2036,0.2159,0.2225,0.2239,0.2253,0.2359,0.2303,0.2314,0.2252,0.2172,0.2146,0.2143,0.2229,0.2231,0.2233,0.2234,0,0.1114,0.1076,0.1063,0.1055,0.1111,0.1156,0.1208,0.1329,0.1447,0.1756,0.1791,0.1998,0.2156,0.2135,0.2157,0.2141,0.2114,0.2023,0.2049,0.207,0.1939,0.1802,0.1749,0,0,0,0,0,0.1042,0.0998,0.0979,0.0958,0.1028,0.1075,0.1199,0.1273,0.1479,0.1559,0.1677,0.1785,0.186,0.1944,0.1887,0.2027,0.2092,0.1943,0.1993,0.2127,0.2148,0.2006,0,0,0,0,0,0,0.0997,0.0964,0.0935,0.0907,0.091,0.0985,0.1069,0.1202,0.1239,0.1454,0.1511,0.1655,0.1753,0.1897,0.1859,0.1874,0.1856,0.2048,0.2042,0.2115,0.2134,0.2151,0.2013,0,0,0,0,0]},{"header":{"parameterUnit":"m.s-1","parameterCategory":2,"la1":30.2991,"la2":30.254,"lo1":-89.0895,"lo2":-89.0444,"dy":0.0017,"dx":0.0017,"nx":28,"ny":28,"refTime":"2025-05-27T09:00:00:Z","depth":"4","parameterNumber":3,"parameterNumberName":"V-component_of_CURRENTS"},"data":[0,0,0,0,0,0,0,0,0,0,0,0,0,0,0,0,0,0,0,0,0,0,0,0,0,0,0,0,0,0,0,0,0,0,0,0,0,0,0,0,0,0,0,0,0,0,0,0,0,0,0,0,0,0,0,0,0,0,0.0102,0.0103,0,0.0114,0.0114,0.0114,0.0114,0.0114,0.0114,0.0114,0.0127,0.0127,0.0128,0,0,0,0,0,0,0,0,0,0,0,0,0,0.0068,0.0069,0.0102,0.0103,0.0103,0.0113,0.0114,0.0114,0.0114,0.0114,0.0114,0.0114,0.0127,0.0127,0.0128,0,0,0,0,0,0,0,0,0,0,0,0,0,0.0082,0.0069,0.0102,0.0104,0.0104,0.0113,0.0114,0.0114,0.0114,0.0114,0.0114,0.0114,0.0127,0.0127,0.0128,0.0137,0,0,0.013,0.0131,0,0,0,0,0,0,0,0,0.0081,0.0083,0.0104,0.0104,0.0104,0.0112,0.0106,0.0122,0.0114,0.0111,0.0114,0.0114,0.0122,0.0123,0.0126,0.0138,0.0138,0.013,0.0131,0.0131,0.0131,0,0,0,0,0,0,0,0.008,0.0083,0.0107,0.0104,0.0104,0.01,0.0101,0.0109,0.0118,0.0111,0.0111,0.0112,0.0122,0.0126,0.0127,0.0139,0.013,0.0131,0.0131,0.0132,0.0156,0.0156,0,0,0,0,0,0,0.008,0.0082,0.0107,0.0107,0.0092,0.01,0.0102,0.011,0.0118,0.0119,0.0112,0.0112,0.0124,0.0126,0.0127,0.0155,0.0131,0.0132,0.0132,0.0156,0.0156,0.0156,0,0,0,0,0,0,0.0079,0.0082,0.0106,0.0094,0.0097,0.0101,0.011,0.011,0.0115,0.0119,0.0119,0.0116,0.0124,0.0126,0.0139,0.0155,0.0132,0.0133,0.0155,0.0156,0.0156,0.02,0,0,0,0,0,0,0.0078,0.0082,0.0086,0.0094,0.0098,0.0117,0.011,0.0111,0.0115,0.0115,0.0122,0.0123,0.0124,0.0137,0.0139,0.0155,0.0133,0.0155,0.0155,0.0156,0.0199,0.0202,0.0205,0,0,0,0,0,0.0077,0.009,0.0087,0.0089,0.0104,0.0118,0.0119,0.0121,0.0116,0.0123,0.0126,0.0123,0.0141,0.0139,0.0141,0.0157,0.0155,0.0155,0.0156,0.0197,0.0202,0.0205,0,0,0,0,0,0,0.008,0.0092,0.0088,0.0104,0.011,0.0118,0.0124,0.0123,0.0131,0.0131,0.013,0.0132,0.0146,0.0143,0.014,0.0162,0.0145,0.0146,0.0176,0.018,0.0183,0.0191,0.0134,0,0,0,0,0,0.0081,0.0094,0.0101,0.0113,0.0116,0.0118,0.0123,0.0126,0.0133,0.0136,0.0141,0.0144,0.0149,0.0158,0.0159,0.0178,0.0155,0.0187,0.019,0.0193,0.0199,0.0173,0.0175,0.0157,0.0157,0.0157,0,0,0.0084,0.0093,0.0099,0.0114,0.0117,0.0139,0.0121,0.0134,0.0159,0.0137,0.0168,0.0155,0.0154,0.0172,0.0178,0.0175,0.0184,0.0193,0.0196,0.0201,0.0174,0.0175,0.0177,0.0158,0.0158,0.0158,0,0,0.0105,0.0105,0.0125,0.0135,0.0146,0.0152,0.0156,0.0166,0.0176,0.0199,0.0186,0.0181,0.0199,0.0199,0.0202,0.0223,0.0197,0.0221,0.0254,0.0229,0.023,0.0231,0.0199,0.0196,0.0229,0.0229,0.0229,0,0.0107,0.0141,0.0132,0.0157,0.0175,0.0161,0.0193,0.0203,0.0217,0.0228,0.0216,0.022,0.0215,0.0233,0.0238,0.0232,0.0208,0.0243,0.0234,0.0234,0.0234,0.0201,0.0198,0.0231,0.0231,0.0231,0.0231,0,0.0146,0.0176,0.0189,0.022,0.0232,0.0258,0.0269,0.0284,0.0288,0.0291,0.0301,0.0283,0.0285,0.0279,0.027,0.027,0.0248,0.0236,0.0226,0.0239,0.0202,0.0198,0.0235,0.0234,0.0233,0.0233,0,0,0.0153,0.0208,0.0215,0.025,0.0272,0.0293,0.0328,0.0357,0.0383,0.0375,0.0394,0.0388,0.0357,0.0356,0.0331,0.0309,0.0283,0.0277,0.0275,0.0249,0.022,0.0214,0.0208,0.0268,0.0268,0.0267,0.0192,0,0.0192,0.0261,0.0275,0.0345,0.0383,0.0388,0.0423,0.0441,0.0449,0.0459,0.0424,0.043,0.0395,0.039,0.0361,0.0304,0.0276,0.0305,0.0208,0.0205,0.0202,0.0205,0.0266,0.0189,0.0188,0.0187,0.0186,0,0.023,0.0278,0.0352,0.0426,0.044,0.0477,0.0529,0.0563,0.0563,0.0559,0.054,0.0504,0.0472,0.0431,0.0347,0.0366,0.0299,0.0247,0.0242,0.0221,0.0192,0.0173,0.0178,0.0179,0.018,0.018,0.0181,0,0.0251,0.0336,0.0403,0.0427,0.0496,0.0535,0.0573,0.0594,0.0636,0.0621,0.0627,0.0569,0.0547,0.0458,0.0352,0.035,0.024,0.0225,0.0153,0.0151,0.0159,0.0159,0.0157,0.0157,0.0158,0.0158,0.0158,0,0.0295,0.0353,0.0426,0.0467,0.0551,0.058,0.066,0.0679,0.071,0.0747,0.0684,0.068,0.0552,0.0473,0.0365,0.0249,0.0252,0.0159,0.0135,0.0178,0.0181,0.0155,0.0156,0.0155,0.0156,0.0156,0.0157,0,0.0311,0.0359,0.0446,0.0533,0.0567,0.0629,0.0733,0.0788,0.0803,0.0845,0.0843,0.0771,0.0669,0.0534,0.0379,0.0283,0.0161,0.0114,0.0167,0.0147,0.0082,0.0086,0.0035,0.0034,0.0033,0.0033,0.0032,0,0.0328,0.0372,0.0486,0.0546,0.0597,0.0694,0.0763,0.0826,0.0879,0.0898,0.0911,0.0833,0.0761,0.0541,0.0389,0.0184,0.0151,0.0074,0.0081,0.009,0.0071,0.0076,0.0081,0.0031,0.0031,0.0031,0.0031,0,0.0352,0.0388,0.0459,0.0579,0.0674,0.078,0.0879,0.0922,0.0982,0.0998,0.0967,0.0853,0.0731,0.0548,0.0387,0.0237,0.0118,0.0067,0.0067,0.0073,0.0085,0.0068,0.0074,0.0029,0.0029,0.0029,0.0029,0,0.0366,0.0406,0.0494,0.0609,0.0727,0.0833,0.0887,0.0952,0.1008,0.1024,0.1005,0.0875,0.0797,0.0575,0.0426,0.0281,0.0244,0.0178,0.0172,0.0172,0.0232,0.0269,0.0252,0,0,0,0,0,0.0378,0.0422,0.0518,0.0644,0.0767,0.0837,0.095,0.0994,0.1041,0.1031,0.1026,0.0911,0.0697,0.0598,0.0456,0.0407,0.0212,0.0231,0.0131,0.0016,0.0019,0.0065,0,0,0,0,0,0,0.0383,0.046,0.0507,0.0659,0.0747,0.0882,0.0956,0.0994,0.0985,0.1,0.0892,0.0851,0.0648,0.0777,0.0444,0.0402,0.0312,0.0139,0.0136,0.0015,0.0017,0.0019,0.0068,0,0,0,0,0]}]]